Location: Guadanolo
(41.9167°N, 12.9333°E)
Time: 15:53:52
(UTC+00:00)

Aureole 1 Rocket - Pass Details

Date: 16 September 2019
Orbit: 379 x 1383 km, 73.9° (Epoch: 14 October)

Event Time Altitude Azimuth Distance (km) Brightness Sun altitude
Rises 18:37:45 0° 338° (NNW) 3,524 7.5 -15.6°
Reaches altitude 10° 18:40:34 10° 338° (NNW) 2,406 6.6 -16.1°
Maximum altitude 18:45:54 78° 254° (WSW) 670 3.2 -17.0°
Enters shadow 18:48:56 18° 168° (SSE) 1,426 4.6 -17.6°
